Location: Polvica
(40.7000°N, 14.6333°E)
Time: 23:51:24
(UTC+00:00)

Daily predictions for brighter satellites

Satellite Brightness Start Highest point End
(mag) Time Altitude Azimuth Time Altitude Azimuth Time Altitude Azimuth
Cosmos 2098 Rocket 4.2 15:54:58 10° N 16:01:15 69° E 16:08:27 10° SSE
ATLAS 5 CENTAUR R/B 2.8 15:56:27 10° NW 16:02:13 75° WSW 16:09:02 10° SSE
CZ-2C R/B 3.0 15:58:35 10° SSE 16:03:44 81° ENE 16:08:40 10° N
Cosmos-2242 3.9 16:02:33 10° SSW 16:06:46 52° W 16:10:59 10° N
FengYun 1-2 T 4.3 16:01:15 10° SSE 16:06:48 65° ENE 16:12:20 10° N
SJ 16-02 2.1 16:04:06 10° N 16:08:00 30° ENE 16:11:52 10° SE
NOAA 6 4.1 16:05:20 10° SSE 16:10:21 56° ENE 16:15:23 10° N
CZ-4B R/B 4.2 16:07:02 10° ESE 16:11:23 25° ENE 16:15:41 10° NNE
CORIOLIS 4.3 16:07:15 10° SE 16:12:25 52° ENE 16:17:39 10° N
Cosmos 1842 Rocket 4.3 16:09:12 10° SSE 16:13:09 33° E 16:17:09 10° NNE
Cosmos 1833 Rocket 4.4 16:11:45 10° SE 16:14:15 13° E 16:16:46 10° ENE
Cosmos 1354 Rocket 4.2 16:09:25 10° NNW 16:14:47 84° WSW 16:20:06 10° SSE
CZ-4B R/B 3.3 16:12:55 10° S 16:17:13 72° WSW 16:21:21 10° NNW
Iridium 2 3.6 16:23:32 10° N 16:27:19 87° E 16:31:03 10° S
Cosmos 1766 Rocket 3.6 16:24:11 10° N 16:28:32 86° W 16:32:53 10° S
Cosmos 1606 2.6 16:25:52 10° S 16:29:35 71° E 16:33:19 10° NNE
USA 305 3.7 16:25:33 10° WSW 16:29:36 45° NW 16:33:32 11° NE
EXPRESS MD2 4.0 16:29:00 10° WNW 16:30:54 28° SW 16:33:01 10° SSE
ARGOS 4.0 16:27:05 10° ESE 16:31:37 28° ENE 16:36:10 10° N
Okean O Rocket 2.6 16:30:50 10° ESE 16:34:27 25° ENE 16:38:06 10° NNE
Atlas Centaur 2 3.6 16:33:49 10° SW 16:36:01 15° S 16:38:18 10° SSE
USA 276 4.3 16:35:02 10° NW 16:36:57 15° N 16:38:19 12° NNE
Cosmos 1464 Rocket 4.0 16:31:36 10° S 16:37:56 85° E 16:44:22 10° N
COSMO-SKYMED 1 3.2 16:35:21 10° NNE 16:39:22 36° E 16:43:21 10° SSE
ERBS 2.1 16:42:01 10° SW 16:45:12 82° NW 16:47:12 21° NE
Cosmos 1763 Rocket 4.2 16:41:15 10° SSE 16:45:38 31° E 16:48:40 17° NE
Cosmos 2221 2.5 16:43:21 10° S 16:47:36 85° W 16:51:54 10° N
NOSS 2-1 (E) 4.4 16:46:22 10° WSW 16:49:21 30° NW 16:52:18 10° NNE
Meteor 2-19 Rocket 4.4 16:43:46 10° N 16:49:51 77° E 16:55:57 10° SSE
ISS -1.5 16:51:14 10° NW 16:53:24 16° NNW 16:54:50 13° NNE
CZ-2C R/B 2.6 16:50:13 10° NNE 16:55:22 55° E 17:00:25 10° S
deb Chang Zheng 4 3.6 16:51:23 10° SSE 16:55:32 51° ENE 16:59:44 10° N
Cosmos 1933 3.9 16:52:01 10° SSE 16:55:43 34° E 16:57:32 23° NE
deb Kosmos-1763 4.1 16:52:43 10° SSW 16:56:05 68° WNW 16:59:07 13° NNE
Cosmos 1340 Rocket 3.0 16:54:06 10° N 16:58:02 49° ENE 17:01:59 10° SSE
USA 306 4.3 16:57:42 10° W 17:01:28 30° NNW 17:04:01 17° NNE
Cosmos 990 Rocket 4.5 16:57:24 10° N 17:02:12 36° ENE 17:06:22 13° SE
Nadezhda 4 Rocket 4.0 16:56:16 10° N 17:02:36 86° E 17:08:55 10° S
SMAP 4.4 16:59:00 10° S 17:03:24 42° W 17:07:50 10° NNW
SKYMED 3 4.5 16:59:10 10° NNE 17:03:31 68° ESE 17:07:48 10° S
SL-19 R/B 4.5 16:57:49 10° NNE 17:03:48 76° ESE 17:10:14 10° SSW
Landsat 5 3.6 17:02:19 18° NNE 17:05:21 51° E 17:09:20 10° S
CZ-4 R/B 4.5 17:04:49 10° SSE 17:08:47 51° ENE 17:12:49 10° N
Cosmos 1092 Rocket 4.0 17:03:18 10° N 17:09:34 57° E 17:15:47 10° SSE
Cosmos 1408 Rocket 3.9 17:05:59 10° NNW 17:10:18 64° W 17:14:36 10° S
H-2A R/B 2.2 17:05:41 10° S 17:11:00 81° WSW 17:16:13 10° NNW
COSMOS 2455 4.1 17:07:29 10° SSE 17:11:24 22° ESE 17:11:24 22° ESE
Cosmos 1743 Rocket 3.4 17:07:58 10° N 17:12:17 68° E 17:16:35 10° SSE
COSMOS 2406 3.8 17:08:51 10° SSE 17:13:59 35° ESE 17:15:10 32° E
Cosmos 1697 Rocket 3.5 17:09:32 10° N 17:14:22 29° NE 17:14:22 29° NE
Cosmos 1980 Rocket 4.0 17:11:00 10° N 17:12:44 15° NNE 17:12:44 15° NNE
SJ-11-01 4.2 17:11:36 10° SSE 17:16:18 69° ENE 17:21:03 10° N
USA 307 4.5 17:12:57 10° W 17:16:38 27° NNW 17:18:33 20° NNE
Cosmos 2082 Rocket 3.7 17:13:49 10° SSE 17:16:18 19° SE 17:16:18 19° SE
Cosmos 2034 Rocket 4.4 17:13:16 10° SSW 17:19:24 65° W 17:25:31 10° N
ATLAS CENTAUR R/B 3.8 17:17:41 10° W 17:20:33 18° NW 17:23:33 10° N
Cosmos 44 3.4 17:16:00 10° NNW 17:20:35 44° NE 17:20:57 43° ENE
Cosmos 1627 Rocket 4.4 17:18:51 10° N 17:25:02 64° E 17:31:06 10° SSE
Meteor 2-14 Rocket 4.4 17:19:37 10° N 17:25:38 56° ENE 17:31:35 10° SSE
Lacrosse 5 2.5 17:20:50 10° NW 17:25:50 55° SW 17:30:47 10° SSE
SKYMED 2 3.9 17:23:10 10° N 17:27:29 65° WNW 17:31:46 10° SSW
NOSS 3-1 (A) 4.3 17:20:19 10° NNW 17:27:37 49° NE 17:31:39 30° ESE
Cosmos 1428 Rocket 4.3 17:21:56 10° N 17:28:02 69° E 17:34:08 10° SSE
Cosmos 1809 Rocket 4.3 17:24:26 10° N 17:30:34 73° E 17:36:37 10° SSE
Cosmos 1898 Rocket 3.6 17:26:02 10° N 17:31:08 48° ENE 17:31:16 48° ENE
GEOS 3 Rocket 3.6 17:26:51 10° SSE 17:32:08 82° SW 17:37:22 10° NW
MOS 1-B Rocket 4.4 17:26:47 10° N 17:32:24 60° WNW 17:38:33 10° SSW
NOSS 3-1 (C) 4.0 17:25:00 10° NNW 17:32:40 76° NE 17:41:34 10° SE
Cosmos 1656 3.5 17:28:12 10° NNW 17:33:45 81° ENE 17:39:21 10° SSE
SL-08 RB Rocket 3.6 17:32:40 10° SSE 17:37:18 77° ENE 17:41:58 10° N
Meteor 2-21 Rocket 4.5 17:31:45 10° N 17:37:44 51° ENE 17:43:36 10° SSE
Meteor 1-20 Rocket 4.4 17:32:25 10° NNW 17:38:13 79° W 17:44:03 10° S
Cosmos 468 Rocket 3.9 17:35:15 10° SSW 17:40:23 83° WNW 17:42:42 34° NNE
Cosmos 2279 Rocket 4.0 17:35:40 10° SSE 17:41:42 55° E 17:43:29 41° NE
Cosmos 1500 Rocket 4.5 17:39:30 10° NNW 17:43:48 49° W 17:48:03 10° SSW
SJ 16-02 3.8 17:42:57 10° NW 17:46:23 23° W 17:49:48 10° SSW
Cosmos 1634 Rocket 4.0 17:41:26 10° S 17:47:44 84° W 17:54:07 10° N
DMSP B5D2-2 3.9 17:48:32 68° E 17:48:46 69° ESE 17:53:57 10° S
DMSP B5D1-3 4.5 17:50:11 63° SE 17:50:11 63° SE 17:54:51 10° S
CZ-4B R/B 4.2 17:46:23 10° S 17:51:39 45° W 17:56:51 10° NNW
Cosmos 1805 Rocket 3.8 17:49:52 10° NNW 17:54:11 66° W 17:58:27 10° S
Cosmos 1833 Rocket 2.7 17:51:46 10° SSW 17:57:22 80° WNW 17:58:46 52° N
CZ-4C R/B 4.0 17:51:32 10° NNW 17:56:09 26° NNE 17:56:09 26° NNE
ATLAS 5 CENTAUR R/B 4.4 17:56:16 10° NNW 17:58:54 17° N 17:58:54 17° N
Cosmos 540 Rocket 3.4 17:57:50 10° SSW 18:02:28 74° SSW 18:02:28 74° SSW
Okean O Rocket 3.5 18:06:48 10° SSW 18:10:40 29° W 18:14:35 10° NW
Cosmos 2026 Rocket 4.5 18:04:40 10° NNW 18:10:42 57° W 18:16:38 10° S
ARGOS 4.5 18:06:40 10° SSW 18:11:42 38° W 18:16:44 10° NNW
ATLAS CENTAUR R/B 3.4 18:10:05 10° WSW 18:18:41 43° NW 18:19:16 42° NNW
USA 229 DEB 4.2 18:48:03 10° NW 18:54:57 64° W 18:54:57 64° W
USA 229 4.2 18:48:09 10° NW 18:54:58 64° W 18:54:58 64° W
COSMOS 2455 4.3 18:51:24 10° SW 18:54:37 32° SW 18:54:37 32° SW
Cosmos 1697 Rocket 4.4 18:53:14 10° NW 18:56:10 28° WNW 18:56:10 28° WNW
Cosmos 2082 Rocket 4.1 18:56:08 10° SW 18:58:13 23° SW 18:58:13 23° SW
